Toronto, Ontario

7:51 AM EDT on September 24, 2017 (GMT -0400)
Toronto

Weather History for CYTZ - March, 2014

Change the Weather History Date:

Thursday, March 13, 2014

  Actual Average Record
Temperature  
Mean Temperature 11 °F -  
Max Temperature 19 °F 43 °F 62 °F (2012)
Min Temperature 3 °F 31 °F 3 °F (2014)
Degree Days  
Heating Degree Days 54    
Moisture  
Dew Point -3 °F    
Average Humidity 54    
Maximum Humidity 68    
Minimum Humidity 31    
Precipitation  
Precipitation 0.00 in 0.08 in - ()
Sea Level Pressure  
Sea Level Pressure 29.96 in    
Wind  
Wind Speed 14 mph ()    
Max Wind Speed 22 mph    
Max Gust Speed 29 mph    
Visibility 8.2 miles    
Events Snow    
Averages and records for this station are not official NWS values.
T = Trace of Precipitation, MM = Missing Value Source: Averaged Metar Reports

Daily Weather History Graph

Daily Weather History Graph

Search for Another Location

Airport or City:

Trip Planner

Search our weather history database for the weather conditions in past years. The results will help you decide how hot, cold, wet, or windy it might be!

Date:

Astronomy

Mar. 13, 2014 Rise Set
Actual Time 7:33 AM EDT 7:21 PM EDT
Civil Twilight 7:04 AM EDT 7:49 PM EDT
Nautical Twilight 6:31 AM EDT 8:23 PM EDT
Astronomical Twilight 5:57 AM EDT 8:57 PM EDT
Moon 4:42 PM EDT (3/13) 5:43 AM EDT (3/13)
Length of Visible Light 12h 45m
Length of Day
11h 48m
Waxing Gibbous, 91% of the Moon is Illuminated
Mar 13
Waxing Gibbous
Mar 16
Full
Mar 23
Last Quarter
Mar 30
New
Apr 7
First Quarter

Hourly Weather History & Observations

Time (EDT) Temp. Windchill Dew Point Humidity Pressure Visibility Wind Dir Wind Speed Gust Speed Precip Events Conditions
12:00 AM 10.4 °F -6.6 °F -2.2 °F 57% 29.85 in 9.0 mi NNW 16.1 mph 23.0 mph N/A   Clear
12:48 AM 8.6 °F -8.3 °F -2.2 °F 62% 29.85 in 6.0 mi NNW 15.0 mph 24.2 mph N/A Snow Light Snow
12:57 AM 8.6 °F -10.0 °F -2.2 °F 62% 29.85 in 9.0 mi NW 18.4 mph 28.8 mph N/A   Clear
1:00 AM 8.6 °F -7.7 °F -4.0 °F 57% 29.85 in 9.0 mi NNW 13.8 mph 28.8 mph N/A   Clear
2:00 AM 8 °F - -5 °F 38% 29.86 in 10 mi NNW 16.1 mph - -  
2:00 AM 6.8 °F -11.3 °F -5.8 °F 56% 29.85 in 9.0 mi NNW 16.1 mph 23.0 mph N/A   Clear
3:00 AM 6.8 °F -13.4 °F -5.8 °F 56% 29.86 in 9.0 mi NW 20.7 mph 28.8 mph N/A   Clear
4:00 AM 5.0 °F -13.0 °F -5.8 °F 61% 29.86 in 9.0 mi NNW 15.0 mph 26.5 mph N/A   Clear
4:06 AM 5.0 °F -14.7 °F -5.8 °F 61% 29.86 in 5.0 mi NNW 18.4 mph 26.5 mph N/A   Haze
4:09 AM 5.0 °F -14.2 °F -5.8 °F 61% 29.86 in 4.0 mi NNW 17.3 mph 27.6 mph N/A Snow Light Snow
4:16 AM 5.0 °F -13.6 °F -7.6 °F 56% 29.86 in 6.0 mi NNW 16.1 mph 27.6 mph N/A Snow Light Snow
4:18 AM 5.0 °F -13.6 °F -5.8 °F 61% 29.86 in 5.0 mi NNW 16.1 mph 27.6 mph N/A Snow Light Snow
4:19 AM 5.0 °F -12.3 °F -5.8 °F 61% 29.86 in 5.0 mi NW 13.8 mph 27.6 mph N/A   Haze
4:24 AM 5.0 °F -12.3 °F -7.6 °F 56% 29.87 in 4.0 mi NNW 13.8 mph 27.6 mph N/A Snow Light Snow
4:28 AM 5.0 °F -12.3 °F -7.6 °F 56% 29.87 in 6.0 mi NNW 13.8 mph 23.0 mph N/A Snow Light Snow
4:33 AM 5.0 °F -15.2 °F -7.6 °F 56% 29.87 in 7.0 mi NNW 19.6 mph 27.6 mph N/A   Clear
5:00 AM 5.0 °F -12.3 °F -7.6 °F 56% 29.89 in 9.0 mi NNW 13.8 mph 25.3 mph N/A   Clear
6:00 AM 3.2 °F -15.9 °F -7.6 °F 61% 29.93 in 9.0 mi NW 16.1 mph 23.0 mph N/A   Clear
7:00 AM 3.2 °F -13.9 °F -7.6 °F 61% 29.96 in 9.0 mi NW 12.7 mph 20.7 mph N/A   Clear
8:00 AM 3 °F - -8 °F 43% 29.99 in 10 mi NW 11.5 mph - -  
8:00 AM 3.2 °F -13.1 °F -7.6 °F 61% 29.99 in 9.0 mi NNW 11.5 mph - N/A   Clear
9:00 AM 5.0 °F -13.0 °F -9.4 °F 52% 30.02 in 9.0 mi NW 15.0 mph 21.9 mph N/A   Clear
10:00 AM 6.8 °F -6.9 °F -7.6 °F 52% 30.04 in 9.0 mi NNW 9.2 mph 21.9 mph N/A   Clear
11:00 AM 8.6 °F -7.7 °F -7.6 °F 48% 30.05 in 9.0 mi NW 13.8 mph 23.0 mph N/A   Clear
12:00 PM 10.4 °F -3.3 °F -7.6 °F 44% 30.06 in 9.0 mi NW 10.4 mph 25.3 mph N/A   Clear
1:00 PM 12.2 °F -4.3 °F -4.0 °F 48% 30.06 in 9.0 mi NW 16.1 mph 27.6 mph N/A   Clear
2:00 PM 16 °F - -1 °F 31% 30.06 in 10 mi West 13.8 mph - -  
2:00 PM 15.8 °F 2.7 °F -0.4 °F 49% 30.06 in 9.0 mi West 11.5 mph 20.7 mph N/A   Clear
3:00 PM 17.6 °F 5.0 °F -2.2 °F 42% 30.05 in 9.0 mi West 11.5 mph 19.6 mph N/A   Clear
4:00 PM 19.4 °F 5.5 °F -0.4 °F 42% 30.05 in 9.0 mi West 15.0 mph - N/A   Mostly Cloudy
5:00 PM 19.4 °F 5.5 °F -0.4 °F 42% 30.05 in 9.0 mi West 15.0 mph - N/A   Mostly Cloudy
6:00 PM 19.4 °F 4.1 °F 1.4 °F 46% 30.06 in 9.0 mi West 18.4 mph - N/A   Mostly Cloudy
7:00 PM 19.4 °F 6.0 °F 5.0 °F 54% 30.07 in 9.0 mi West 13.8 mph - N/A   Overcast
8:00 PM 19 °F - 7 °F 46% 30.08 in 10 mi WSW 18.4 mph - -   Overcast
8:00 PM 19.4 °F 2.8 °F 6.8 °F 58% 30.07 in 9.0 mi WSW 21.9 mph - N/A   Overcast
9:00 PM 19.4 °F 5.0 °F 6.8 °F 58% 30.08 in 9.0 mi WSW 16.1 mph - N/A   Overcast
10:00 PM 19.4 °F 5.0 °F 8.6 °F 63% 30.08 in 9.0 mi WSW 16.1 mph 21.9 mph N/A   Overcast
11:00 PM 19.4 °F 3.6 °F 10.4 °F 68% 30.07 in 9.0 mi SW 19.6 mph - N/A   Overcast